Regional Weather Roundup
Issued by NWS

Home | Current Version | Previous Version | Graphics & Text | Print | Product List | Glossary Off
Versions: 1 2 3 4 5 6 7 8 9 10 11 12 13 14 15 16 17 18 19 20 21 22 23 24 25 26 27 28 29 30 31 32 33 34 35 36 37 38 39 40 41 42 43 44 45 46 47 48 49 50

847
ASUS43 KMKX 220038
RWRWI

WISCONSIN REGIONAL WEATHER ROUNDUP
NATIONAL WEATHER SERVICE MILWAUKEE/SULLIVAN WI
800 PM CDT THU MAY 21 2015

NOTE: "FAIR" INDICATES FEW OR NO CLOUDS BELOW 12,000 FEET WITH NO
SIGNIFICANT WEATHER AND/OR OBSTRUCTIONS TO VISIBILITY.

WIZ001-002-006>008-014>016-023>028-220200-
NORTHWEST WISCONSIN

CITY           SKY/WX    TMP DP  RH WIND       PRES   REMARKS
SUPERIOR ARPT  CLEAR     67  27  22 N10       30.00S
ASHLAND        CLEAR     62  43  49 N5        30.01S
HAYWARD        CLEAR     67  28  23 N12       30.00S
SIREN          CLEAR     68  28  22 N9G16     30.01S
CUMBERLAND     CLEAR     64  30  27 NW14      30.00S
RICE LAKE      CLEAR     69  32  25 N7        30.01S
CHETEK         CLEAR     67  36  31 N5        29.99S
LADYSMITH      CLEAR     66  30  26 N9        30.01S
EAU CLAIRE     CLEAR     70  32  24 N8        29.98R
MENOMONIE      CLEAR     71  28  20 NW14G21   29.99R
NEW RICHMOND   CLEAR     69  30  23 NW12G23   30.01S
OSCEOLA        CLEAR     69  33  27 NW10G16   30.04S
$$

WIZ003>005-009-010-017-018-220200-
NORTH CENTRAL WISCONSIN

CITY           SKY/WX    TMP DP  RH WIND       PRES   REMARKS
MANITOWISH WTR CLEAR     59  29  31 N7        30.01S
ARBOR VITAE    CLEAR     59  27  29 N9        30.00F
WOODRUFF       CLEAR     59  27  29 N9        30.00F
RHINELANDER    CLEAR     60  25  26 NW9G20    30.00S
EAGLE RIVER    CLEAR     59  23  24 N12       30.00R
LAND O LAKES   CLEAR     59  25  27 N9        30.01S
PHILLIPS       CLEAR     62  33  34 N9        29.99S
TOMAHAWK       CLEAR     61  25  25 N8        30.01R
MEDFORD        CLEAR     62  32  32 N8        29.99R
MERRILL        CLEAR     63  29  27 N12G18    29.99R
$$

WIZ029-030-035-036-043>047-220200-
CENTRAL WISCONSIN

CITY           SKY/WX    TMP DP  RH WIND       PRES   REMARKS
WAUSAU         CLEAR     66  26  22 N16G22    29.95R
MOSINEE        PTCLDY    66  30  26 N14G24    29.95S
MARSHFIELD     CLEAR     68  36  30 N12       29.96R
STEVENS POINT  PTCLDY    68  36  30 NW12G18   29.94R
WAUPACA        MOCLDY    72  31  22 NW10G20   29.92R
WAUTOMA        PTCLDY    62  53  72 CALM      29.93S
WISC RAPIDS    PTCLDY    71  31  22 NW15      29.95R
CAMP DOUGLAS   PTCLDY    72  34  25 W12       29.94S
$$

WIZ011>013-019>022-031-037>040-048>050-220200-
NORTHEAST WISCONSIN

CITY           SKY/WX    TMP DP  RH WIND       PRES   REMARKS
ANTIGO         CLEAR     63  27  26 NW15      29.97R
SHAWANO        CLOUDY    60  43  53 E10G16    29.96R
OCONTO         PTCLDY    56  38  50 E8        29.97R
STURGEON BAY   PTCLDY    55  30  38 E13G18    30.00R
GREEN BAY      MOCLDY    59  42  53 E12       29.94R
MANITOWOC      CLOUDY    56  37  49 NE10G17   29.97R
APPLETON       MOCLDY    66  36  32 NW6       29.92S
CLINTONVILLE   CLOUDY    68  39  34 N12G17    29.92R
OSHKOSH        PTCLDY    70  37  29 W8        29.91S
$$

WIZ032>034-041-042-053>061-220200-
SOUTHWEST WISCONSIN

CITY           SKY/WX    TMP DP  RH WIND       PRES   REMARKS
LA CROSSE      CLEAR     72  41  32 NW8       29.96F
SPARTA         CLEAR     71  34  25 NW8       29.97S
VIROQUA        CLEAR     68  30  24 NW16G23   29.98R
BOSCOBEL       CLEAR     74  32  21 W10       29.96S
PRAIRIE DU CHI CLEAR     72  25  17 NW15      29.97R
PLATTEVILLE    PTCLDY    70  41  35 SW9       29.98F
$$

WIZ056-057-062-063-064-067-068-220200-
SOUTH CENTRAL WISCONSIN

CITY           SKY/WX    TMP DP  RH WIND       PRES   REMARKS
REEDSBURG      PTCLDY    69  42  38 SW7       29.94S
BARABOO/DELLS  PTCLDY    69  37  30 SW10      29.94F
LONE ROCK      PTCLDY    72  40  31 W8G20     29.95F
MINERAL POINT  CLEAR     70  37  30 SW8       29.97F
MADISON        PTCLDY    69  38  32 VRB5      29.95F
MIDDLETON      PTCLDY    70  36  28 SW14      29.96F
WATERTOWN      CLEAR     69  37  31 W10       29.94F
MONROE         CLEAR     68  41  37 SW13G21   29.99F
JANESVILLE     CLEAR     70  37  30 W12       29.98F
$$

WIZ051-052-058>065-066-070>072-220200-
SOUTHEAST WISCONSIN

CITY           SKY/WX    TMP DP  RH WIND       PRES   REMARKS
MILWAUKEE      PTCLDY    70  32  24 W15       29.95F
WAUKESHA       PTCLDY    66  34  30 W13       29.96F
MILWAUKEE/TIMM CLEAR     70  28  21 W13       29.95F
RACINE         CLEAR     69  34  27 W9        29.97F
BURLINGTON     CLEAR     67  36  32 SW14      29.97S
KENOSHA        CLEAR     67  41  38 SW12      29.97F
FOND DU LAC    LGT RAIN  67  37  33 W13G33    29.93R
SHEBOYGAN      CLOUDY    64  38  38 NE17      29.93R
WEST BEND      MOCLDY    70  32  24 W9G21     29.93S
JUNEAU         PTCLDY    68  38  32 SW12      29.94F
$$

LSZ147-162-220200-
LAKE SUPERIOR

STATION/POSITION TIME  TEMP    WIND        PRES    WAVE
                       AIR SEA DIR/SP/G            HT/PER
                 (UTC) (F)     (DEG/KT/KT) (MB)    (FT/S)
W MID LAKE BUOY  2350   43 37  160/  4/  4   N/A     0
DEVILS ISLAND    0000   52      CALM  /  2   N/A
PORT WING        2300   53      30/  4/  4   N/A
SAXON HARBOR     2240   58      50/  3/  4   N/A
$$

LMZ867-665-643>646-220200-
LAKE MICHIGAN

STATION/POSITION TIME  TEMP    WIND        PRES    WAVE
                       AIR SEA DIR/SP/G            HT/PER
                 (UTC) (F)     (DEG/KT/KT) (MB)    (FT/S)
CHAMBERS ISLAND  2200   55      40/ 16/ 24   N/A
N MID LAKE BUOY  2350   43 36  360/  8/  8   N/A     1/ 4
NORTHPORT PIER   2300   56      30/ 14/ 18   N/A
SISTER BAY       2317   59      20/ 13/ 20   N/A
KEWAUNEE LAKESHO 2300           30/  8/ 14   N/A
SHEBOYGAN LAKESH 0000           10/  8/ 11   N/A
PORT WASHINGTON  2340   71     270/  8/ 15   N/A
ATWATER BUOY     2300   65 44  250/ 16/ 17   N/A
MILWAUKEE LAKESH 2300   70     280/ 10/ 14   N/A
S MID LAKE BUOY  2350   45 38  190/ 14/ 14   N/A
KENOSHA   LAKESH 2300   70     250/  9/ 17   N/A
$$

TC  - TEMPERATURE IN CELSIUS
VSB - VISIBILITY IN STATUTE MILES
WCI - WIND CHILL INDEX
HX  - HEAT INDEX




USA.gov is the U.S. government's official web portal to all federal, state and local government web resources and services.